Location: Hains Lake
(37.8540°N, 99.8578°W)
Time: 09:01:52
(UTC+00:00)

Vanguard 1 - Pass Details

Date: 02 December 2021
Orbit: 652 x 3830 km, 34.2° (Epoch: 24 January)

Event Time Altitude Azimuth Distance (km) Brightness Sun altitude
Exits shadow 09:15:19 78° 145° (SE) 3,441 12.4 -51.0°
Drops below altitude 10° 09:30:47 10° 94° (E) 5,090 14.2 -48.0°
Sets 09:33:54 0° 93° (E) 5,761 14.7 -47.4°
